Senarai episod Smallville

Daripada Wikipedia, ensiklopedia bebas.
Jump to navigation Jump to search
Smallville 2001 logo.svg

Smallville ialah sebuah siri TV yang dibangunkan oleh Alfred Gough dan Miles Millar, berdasarkan pada watak DC Comics Superman. Di Amerika Syarikat, episod pertama siri ini pada asalnya disiarkan pada 16 Oktober 2001; dan mengakhiri tayangan selama sepuluh tahunnya pada 13 Mei 2011, dengan 217 episod. Lima episod pertama disiarkan di The WB; setelah penggabungan The WB dengan UPN pada September 2006, Smallville kemudian ditayangkan di rangkaian baru, The CW.[1] Kesemua sepuluh musim kini tersedia dalam bentuk DVD di rantau 1, 2, dan 4. Sejak tayangan perdana, siri tersebut rata-rata memiliki 4.47 juta penonton setiap episod sepanjang sepuluh musimnya.

Smallville mengisahkan kehidupan Clark Kent (Tom Welling), bermula di usia remaja di bandar Smallville, Kansas, dan memasuki sekolah menengah, kolej dan permulaannya di Daily Planet sebelum dia mengguna pakai pesona "Superman". Sepanjang penyiaran siri tersebut, Clark Kent mengatasi kuasa hebatnya yang baru muncul (penglihatan sinar-x, pendengaran super, dan lain-lain), penerokaan asal-usul luar angkasa dan menemui nasibnya yang sebenar. Siri ini juga menangani orang-orang dalam kehidupan Clark Kent: ibu bapa manusianya, Jonathan Kent (John Schneider) dan Martha Kent (Annette O'Toole); rakannya Chloe Sullivan (Allison Mack) dan Pete Ross (Sam Jones III); pasangannya untuk tujuh musim Lana Lang (Kristin Kreuk); sepupu Chloe dan pasangan Clark sejak musim kelapan, Lois Lane (Erica Durance); dan persahabatannya dengan Lex Luthor (Michael Rosenbaum) dan bagaimana ini secara beransur-ansur menghancurkan permusuhan bersama mereka.

Ringkasan siri[sunting | sunting sumber]

SiriEpisodTayangan asal
Tayangan pertamaTayangan terakhirRangkaian
12116 Oktober 2001 (2001-10-16)Mei 21, 2002 (2002-05-21)The WB
22324 September 2002 (2002-09-24)Mei 20, 2003 (2003-05-20)
3221 Oktober 2003 (2003-10-01)Mei 19, 2004 (2004-05-19)
42222 September 2004 (2004-09-22)Mei 18, 2005 (2005-05-18)
52229 September 2005 (2005-09-29)Mei 11, 2006 (2006-05-11)
62228 September 2006 (2006-09-28)Mei 17, 2007 (2007-05-17)The CW
72027 September 2007 (2007-09-27)Mei 15, 2008 (2008-05-15)
82218 September 2008 (2008-09-18)Mei 14, 2009 (2009-05-14)
92125 September 2009 (2009-09-25)Mei 14, 2010 (2010-05-14)
102224 September 2010 (2010-09-24)Mei 13, 2011 (2011-05-13)

Episod[sunting | sunting sumber]

Musim 1 (2001–02)[sunting | sunting sumber]

Rencana utama: Smallville (musim 1)
No. dalam
siri
No. dalam
musim
Tajuk Arahan Ditulis oleh Tarikh tayangan asal Kod
penerbitan
Penonton AS
(juta)
11"Pilot"David NutterAlfred Gough & Miles Millar16 Oktober 2001 (2001-10-16)4751658.4[2]
22"Metamorphosis"Michael Watkins
& Philip Sgriccia
Alfred Gough & Miles Millar23 Oktober 2001 (2001-10-23)2276017.3[3]
33"Hothead"Greg BeemanGreg Walker30 Oktober 2001 (2001-10-30)2276036.0[3]
44"X-Ray"James FrawleyMark Verheiden6 November 2001 (2001-11-06)2276046.6[3]
55"Cool"James A. ContnerMichael Green13 November 2001 (2001-11-13)2276055.9[3]
66"Hourglass"Chris LongDoris Egan20 November 2001 (2001-11-20)2276066.4[3]
77"Craving"Philip SgricciaMichael Green27 November 2001 (2001-11-27)2276077.4[3]
88"Jitters"Michael WatkinsCherie Bennett & Jeff Gottesfeld11 Disember 2001 (2001-12-11)2276025.8[3]
99"Rogue"David CarsonMark Verheiden15 Januari 2002 (2002-01-15)2276085.8[3]
1010"Shimmer"D. J. CarusoMark Verheiden & Michael Green29 Januari 2002 (2002-01-29)2276097.0[3]
1111"Hug"Chris LongDoris Egan5 Februari 2002 (2002-02-05)2276106.4[3]
1212"Leech"Greg BeemanTimothy Schlattmann12 Februari 2002 (2002-02-12)2276116.1[3]
1313"Kinetic"Robert SingerPhilip Levens26 Februari 2002 (2002-02-26)2276126.2[3]
1414"Zero"Michael KatlemanDrama televisyen oleh: Mark Verheiden
Cerita oleh: Alfred Gough & Miles Millar
12 Mac 2002 (2002-03-12)2276136.9[3]
1515"Nicodemus"James MarshallDrama televisyen oleh: Michael Green
Cerita oleh: Greg Walker
19 Mac 2002 (2002-03-19)2276146.7[3]
1616"Stray"Paul ShapiroPhilip Levens16 April 2002 (2002-04-16)2276156.0[3]
1717"Reaper"Terrence O'HaraCameron Litvack23 April 2002 (2002-04-23)2276165.5[3]
1818"Drone"Michael KatlemanMichael Green & Philip Levens30 April 2002 (2002-04-30)2276175.7[3]
1919"Crush"James MarshallPhilip Levens & Alfred Gough & Miles Millar7 Mei 2002 (2002-05-07)2276186.4[3]
2020"Obscura"Terrence O'HaraDrama televisyen oleh: Mark Verheiden & Michael Green
Cerita oleh: Greg Walker
14 Mei 2002 (2002-05-14)2276196.1[3]
2121"Tempest"Greg BeemanDrama televisyen oleh: Alfred Gough & Miles Millar
Cerita oleh: Philip Levens
21 Mei 2002 (2002-05-21)2276206.0[3]

Musim 2 (2002–03)[sunting | sunting sumber]

Rencana utama: Smallville (musim 2)
No. dalam
siri
No. dalam
musim
Judul Arahan Ditulis oleh Tarikh tayangan asal Kod
penerbitan
Penonton AS
(juta)
221"Vortex"Greg BeemanDrama televisyen oleh: Philip Levens
Cerita oleh: Alfred Gough & Miles Millar
24 September 2002 (2002-09-24)1750518.7[4]
232"Heat"James MarshallMark Verheiden1 Oktober 2002 (2002-10-01)1750528.1[4]
243"Duplicity"Steve MinerTodd Slavkin & Darren Swimmer8 Oktober 2002 (2002-10-08)1750538.8[4]
254"Red"Jeff WoolnoughJeph Loeb15 Oktober 2002 (2002-10-15)1750548.9[4]
265"Nocturne"Rick WallaceBrian Peterson & Kelly Souders22 Oktober 2002 (2002-10-22)1750558.3[4]
276"Redux"Chris LongRussel Friend & Garrett Lerner29 Oktober 2002 (2002-10-29)2276218.2[4]
287"Lineage"Greg BeemanDrama televisyen oleh: Kenneth Biller
Cerita oleh: Alfred Gough & Miles Millar
5 November 2002 (2002-11-05)1750569.4[4]
298"Ryan"Terrence O'HaraPhilip Levens12 November 2002 (2002-11-12)1750577.4[4]
309"Dichotic"Craig ZiskMark Verheiden19 November 2002 (2002-11-19)1750588.3[4]
3110"Skinwalker"Marita GrabiakDrama televisyen oleh: Brian Peterson & Kelly Souders
Cerita oleh: Mark Warshaw
26 November 2002 (2002-11-26)1750598.6[4]
3211"Visage"William GereghtyTodd Slavkin & Darren Swimmer14 Januari 2003 (2003-01-14)1750607.3[4]
3312"Insurgence"James MarshallKenneth Biller & Jeph Loeb21 Januari 2003 (2003-01-21)1750626.6[4]
3413"Suspect"Greg BeemanMark Verheiden & Philip Levens28 Januari 2003 (2003-01-28)1750617.5[4]
3514"Rush"Rick RosenthalTodd Slavkin & Darren Swimmer4 Februari 2003 (2003-02-04)1750638.1[4]
3615"Prodigal"Greg BeemanBrian Peterson & Kelly Souders11 Februari 2003 (2003-02-11)1750647.4[4]
3716"Fever"Bill GereghtyMatthew Okumura18 Februari 2003 (2003-02-18)1750657.9[4]
3817"Rosetta"James MarshallAlfred Gough & Miles Millar25 Februari 2003 (2003-02-25)1750668.7[4]
3918"Visitor"Rick RosenthalPhilip Levens15 April 2003 (2003-04-15)1750675.9[4]
4019"Precipice"Thomas J. WrightClint Carpenter22 April 2003 (2003-04-22)1750686.7[4]
4120"Witness"Rick WallaceMark Verheiden29 April 2003 (2003-04-29)1750696.5[4]
4221"Accelerate"James MarshallDrama televisyen oleh: Brian Peterson & Kelly Souders
Cerita oleh: Todd Slavkin & Darren Swimmer
6 Mei 2003 (2003-05-06)1750707.0[4]
4322"Calling"Terrence O'HaraKenneth Biller13 Mei 2003 (2003-05-13)1750717.1[4]
4423"Exodus"Greg BeemanAlfred Gough & Miles Millar20 Mei 2003 (2003-05-20)1750727.5[4]

Musim 3 (2003–04)[sunting | sunting sumber]

Rencana utama: Smallville (musim 3)
No. dalam
siri
No. dalam
musim
Judul Arahan Ditulis oleh Tarikh tayangan asal Kod
penerbitan
Penonton AS
(juta)
451"Exile"Greg BeemanAlfred Gough & Miles Millar1 Oktober 2003 (2003-10-01)1762016.80[5]
462"Phoenix"James MarshallKelly Souders & Brian Peterson8 Oktober 2003 (2003-10-08)1762026.70[5]
473"Extinction"Michael KatlemanTodd Slavkin & Darren Swimmer15 Oktober 2003 (2003-10-15)1762036.50[5]
484"Slumber"Daniel AttiasDrew Z. Greenberg22 Oktober 2003 (2003-10-22)1762046.90[5]
495"Perry"Jeannot SzwarcMark Verheiden29 Oktober 2003 (2003-10-29)1762056.70[5]
506"Relic"Marita GrabiakKelly Souders & Brian Peterson5 November 2003 (2003-11-05)1762066.70[5]
517"Magnetic"David JacksonHolly Harold12 November 2003 (2003-11-12)1762076.90[5]
528"Shattered"Ken BillerKen Biller19 November 2003 (2003-11-19)1762086.40[5]
539"Asylum"Greg BeemanTodd Slavkin & Darren Swimmer14 Januari 2004 (2004-01-14)1762095.60[5]
5410"Whisper"Tom WrightKen Horton21 Januari 2004 (2004-01-21)1762105.10[5]
5511"Delete"Pat WilliamsKelly Souders & Brian Peterson28 Januari 2004 (2004-01-28)1762115.50[5]
5612"Hereafter"Greg Beeman & James MarshallMark Verheiden & Drew Greenberg4 Februari 2004 (2004-02-04)1762125.30[5]
5713"Velocity"Jeannot SzwarcTodd Slavkin & Darren Swimmer11 Februari 2004 (2004-02-11)1762135.00[5]
5814"Obsession"James MarshallHolly Harold18 Februari 2004 (2004-02-18)1762145.33[6]
5915"Resurrection"Terrence O'HaraTodd Slavkin & Darren Swimmer25 Februari 2004 (2004-02-25)1762154.97[7]
6016"Crisis"Ken BillerKelly Souders & Brian Peterson3 Mac 2004 (2004-03-03)1762165.26[8]
6117"Legacy"Greg BeemanJeph Loeb14 April 2004 (2004-04-14)1762174.48[9]
6218"Truth"James MarshallDrew Greenberg21 April 2004 (2004-04-21)1762184.43[10]
6319"Memoria"Miles MillarAlfred Gough & Miles Millar28 April 2004 (2004-04-28)1762194.32[11]
6420"Talisman"John SchneiderKen Biller5 Mei 2004 (2004-05-05)1762204.72[12]
6521"Forsaken"Terrence O'HaraKelly Souders & Brian Peterson12 Mei 2004 (2004-05-12)1762214.54[13]
6622"Covenant"Greg BeemanDrama televisi oleh: Alfred Gough & Miles Millar
Cerita oleh: Todd Slavkin & Darren Swimmer
19 Mei 2004 (2004-05-19)1762225.92[14]

Musim 4 (2004–05)[sunting | sunting sumber]

Rencana utama: Smallville (musim 4)
No. dalam
siri
No. dalam
musim
Judul Arahan Ditulis oleh Tarikh tayangan asal Kod
penerbitan
Penonton AS
(juta)
671"Crusade"Greg BeemanAlfred Gough & Miles Millar22 September 2004 (2004-09-22)2T52016.07[15]
682"Gone"James MarshallKelly Souders & Brian Peterson29 September 2004 (2004-09-29)2T52025.66[16]
693"Façade"Pat WilliamsHolly Harold6 Oktober 2004 (2004-10-06)2T52035.45[17]
704"Devoted"David CarsonLuke Schelhaas13 Oktober 2004 (2004-10-13)2T52046.20[18]
715"Run"David BarrettSteven S. DeKnight20 Oktober 2004 (2004-10-20)2T52055.41[19]
726"Transference"James MarshallTodd Slavkin & Darren Swimmer27 Oktober 2004 (2004-10-27)2T52065.69[20]
737"Jinx"Paul ShapiroMark Warshaw3 November 2004 (2004-11-03)2T52075.02[21]
748"Spell"Jeannot SzwarcSteven S. DeKnight10 November 2004 (2004-11-10)2T52085.51[22]
759"Bound"Terrence O'HaraLuke Schelhaas17 November 2004 (2004-11-17)2T52095.06[23]
7610"Scare"David CarsonKelly Souders & Brian Peterson1 Disember 2004 (2004-12-01)2T52104.89[24]
7711"Unsafe"Greg BeemanSteven S. DeKnight & Jeph Loeb26 Januari 2005 (2005-01-26)2T52114.21[25]
7812"Pariah"Paul ShapiroHolly Harold2 Februari 2005 (2005-02-02)2T52124.78[26]
7913"Recruit"Jeannot SzwarcTodd Slavkin & Darren Swimmer9 Februari 2005 (2005-02-09)2T52134.91[27]
8014"Krypto"James MarshallLuke Schelhaas16 Februari 2005 (2005-02-16)2T52145.08[28]
8115"Sacred"Brad TurnerKelly Souders & Brian Peterson23 Februari 2005 (2005-02-23)2T52155.26[29]
8216"Lucy"David BarrettDrama televisyen oleh: Neil Sadhu & Daniel Sulzberg
Cerita oleh: Neil Sadhu
2 Mac 2005 (2005-03-02)2T52164.51[30]
8317"Onyx"Terrence O'HaraSteven S. DeKnight13 April 2005 (2005-04-13)2T52173.85[31]
8418"Spirit"Whitney RansickLuke Schelhaas20 April 2005 (2005-04-20)2T52184.39[32]
8519"Blank"Jeannot SzwarcKelly Souders & Brian Peterson27 April 2005 (2005-04-27)2T52194.59[33]
8620"Ageless"Steven S. DeKnightSteven S. DeKnight4 Mei 2005 (2005-05-04)2T52204.51[34]
8721"Forever"James MarshallBrian Peterson & Kelly Souders11 Mei 2005 (2005-05-11)2T52213.96[35]
8822"Commencement"Greg BeemanTodd Slavkin & Darren Swimmer18 Mei 2005 (2005-05-18)2T52225.47[36]

Musim 5 (2005–06)[sunting | sunting sumber]

Rencana utama: Smallville (musim 5)
No. dalam
siri
No. dalam
musim
Judul Arahan Ditulis oleh Tarikh tayangan asal Kod
penerbitan
Penonton AS
(juta)
891"Arrival"James MarshallTodd Slavkin & Darren Swimmer29 September 2005 (2005-09-29)2T64015.90[37]
902"Mortal"Terrence O'HaraSteven S. DeKnight6 Oktober 2005 (2005-10-06)2T64025.84[38]
913"Hidden"Whitney RansickKelly Souders & Brian Peterson13 Oktober 2005 (2005-10-13)2T64035.92[39]
924"Aqua"Bradford MayTodd Slavkin & Darren Swimmer20 Oktober 2005 (2005-10-20)2T64046.40[40]
935"Thirst"Paul ShapiroSteven S. DeKnight27 Oktober 2005 (2005-10-27)2T64055.78[41]
946"Exposed"Jeannot SzwarcKelly Souders & Brian Peterson3 November 2005 (2005-11-03)2T64065.41[42]
957"Splinter"James MarshallSteven S. DeKnight10 November 2005 (2005-11-10)2T64075.51[43]
968"Solitude"Paul ShapiroTodd Slavkin & Darren Swimmer17 November 2005 (2005-11-17)2T64085.97[44]
979"Lexmas"Rick RosenthalHolly Harold8 Disember 2005 (2005-12-08)2T64095.37[45]
9810"Fanatic"Michael RohlWendy Mericle12 Januari 2006 (2006-01-12)2T64105.45[46]
9911"Lockdown"Peter EllisSteven S. DeKnight19 Januari 2006 (2006-01-19)2T64114.90[47]
10012"Reckoning"Greg BeemanKelly Souders & Brian Peterson26 Januari 2006 (2006-01-26)2T64126.28[48]
10113"Vengeance"Jeannot SzwarcAl Septien & Turi Meyer2 Februari 2006 (2006-02-02)2T64135.37[49]
10214"Tomb"Whitney RansickSteven S. DeKnight9 Februari 2006 (2006-02-09)2T64145.41[50]
10315"Cyborg"Glen WinterCaroline Dries16 Februari 2006 (2006-02-16)2T64156.24[51]
10416"Hypnotic"Michael RohlTodd Slavkin & Darren Swimmer30 Mac 2006 (2006-03-30)2T64164.78[52]
10517"Void"Jeannot SzwarcHolly Harold6 April 2006 (2006-04-06)2T64174.24[53]
10618"Fragile"Tom WellingTodd Slavkin & Darren Swimmer13 April 2006 (2006-04-13)2T64183.94[54]
10719"Mercy"James MarshallSteven S. DeKnight20 April 2006 (2006-04-20)2T64194.41[55]
10820"Fade"Terrence O'HaraTuri Meyer & Al Septien27 April 2006 (2006-04-27)2T64204.34[56]
10921"Oracle"Patrick NorrisDrama televisiyen oleh: Caroline Dries
Cerita oleh: Neil Sadhu & Daniel Sulzberg
4 Mei 2006 (2006-05-04)2T64214.81[57]
11022"Vessel"James MarshallKelly Souders & Brian Peterson11 Mei 2006 (2006-05-11)2T64224.85[58]

Musim 6 (2006–07)[sunting | sunting sumber]

Rencana utama: Smallville (musim 6)
No. dalam
siri
No. dalam
musim
Judul Arahan Ditulis oleh Tarikh tayangan asal Kod
penerbitan
Penonton AS
(juta)
1111"Zod"James MarshallSteven S. DeKnight28 September 2006 (2006-09-28)2T77014.96[59]
1122"Sneeze"Paul ShapiroTodd Slavkin & Darren Swimmer5 Oktober 2006 (2006-10-05)2T77024.52[60]
1133"Wither"Whitney RansickTracy Bellomo12 Oktober 2006 (2006-10-12)2T77034.88[61]
1144"Arrow"Michael RohlBrian Peterson & Kelly Souders19 Oktober 2006 (2006-10-19)2T77044.71[62]
1155"Reunion"Jeannot SzwarcSteven S. DeKnight26 Oktober 2006 (2006-10-26)2T77054.79[63]
1166"Fallout"Glen WinterHolly Harold2 November 2006 (2006-11-02)2T77065.01[64]
1177"Rage"Whitney RansickTodd Slavkin & Darren Swimmer9 November 2006 (2006-11-09)2T77074.46[65]
1188"Static"James ConwayShintaro Shimosawa & James Morris16 November 2006 (2006-11-16)2T77084.70[66]
1199"Subterranean"Rick RosenthalCaroline Dries7 Disember 2006 (2006-12-07)2T77094.31[67]
12010"Hydro"Tom WellingBrian Peterson & Kelly Souders11 Januari 2007 (2007-01-11)2T77104.68[68]
12111"Justice"Steven S. DeKnightSteven S. DeKnight18 Januari 2007 (2007-01-18)2T77115.26[69]
12212"Labyrinth"Whitney RansickAl Septien & Turi Meyer25 Januari 2007 (2007-01-25)2T77125.00[70]
12313"Crimson"Glen WinterBrian Peterson & Kelly Souders1 Februari 2007 (2007-02-01)2T77134.91[71]
12414"Trespass"Michael RohlTracy A. Bellomo8 Februari 2007 (2007-02-08)2T77144.74[72]
12515"Freak"Michael RosenbaumTodd Slavkin & Darren Swimmer15 Februari 2007 (2007-02-15)2T77154.76[73]
12616"Promise"Rick RosenthalKelly Souders & Brian Peterson15 Mac 2007 (2007-03-15)2T77164.69[74]
12717"Combat"James MarshallTuri Meyer & Al Septien22 Mac 2007 (2007-03-22)2T77174.07[75]
12818"Progeny"Terrence O'HaraGenevieve Sparling19 April 2007 (2007-04-19)2T77183.98[76]
12919"Nemesis"Mairzee AlmasCaroline Dries26 April 2007 (2007-04-26)2T77193.88[77]
13020"Noir"Jeannot SzwarcBrian Peterson & Kelly Souders3 Mei 2007 (2007-05-03)2T77203.59[78]
13121"Prototype"Mat BeckSteven S. DeKnight10 Mei 2007 (2007-05-10)2T77213.43[79]
13222"Phantom"James MarshallTodd Slavkin & Darren Swimmer17 Mei 2007 (2007-05-17)2T77224.14[80]

Musim 7 (2007–08)[sunting | sunting sumber]

Rencana utama: Smallville (musim 7)
No. dalam
siri
No. dalam
musim
Judul Arahan Ditulis oleh Tarikh tayangan asal Kod
penerbitan
Penonton AS
(juta)
1331"Bizarro"Michael RohlBrian Peterson & Kelly Souders27 September 2007 (2007-09-27)3T63015.18[81]
1342"Kara"James ConwayTodd Slavkin & Darren Swimmer4 Oktober 2007 (2007-10-04)3T63024.59[82]
1353"Fierce"Whitney RansickHolly Harold11 Oktober 2007 (2007-10-11)3T63034.82[83]
1364"Cure"Rick RosenthalAl Septien & Turi Meyer18 Oktober 2007 (2007-10-18)3T63045.18[84]
1375"Action"Mairzee AlmasCaroline Dries25 Oktober 2007 (2007-10-25)3T63064.65[85]
1386"Lara"James ConwayDon Whitehead & Holly Henderson1 November 2007 (2007-11-01)3T63054.31[86]
1397"Wrath"Charles BeesonKelly Souders & Brian Peterson8 November 2007 (2007-11-08)3T63074.64[87]
1408"Blue"Glen WinterTodd Slavkin & Darren Swimmer15 November 2007 (2007-11-15)3T63084.51[88]
1419"Gemini"Whitney RansickCaroline Dries13 Disember 2007 (2007-12-13)3T63093.71[89]
14210"Persona"Todd SlavkinDon Whitehead & Holly Henderson31 Januari 2008 (2008-01-31)3T63103.81[90]
14311"Siren"Kevin G. FairKelly Souders & Brian Peterson7 Februari 2008 (2008-02-07)3T63114.01[91]
14412"Fracture"James MarshallDrama televisyen oleh: Caroline Dries
Cerita oleh: Al Septien & Turi Meyer
14 Februari 2008 (2008-02-14)3T63123.67[92]
14513"Hero"Michael RohlAaron & Todd Helbing13 Mac 2008 (2008-03-13)3T63133.80[93]
14614"Traveler"Glen WinterDrama televisyen oleh: Don Whitehead & Holly Henderson
Cerita oleh: Al Septien & Turi Meyer
20 Mac 2008 (2008-03-20)3T63143.44[94]
14715"Veritas"James MarshallKelly Souders & Brian Peterson27 Mac 2008 (2008-03-27)3T63153.86[95]
14816"Descent"Ken HortonDon Whitehead & Holly Henderson17 April 2008 (2008-04-17)3T63163.61[96]
14917"Sleeper"Whitney RansickCaroline Dries24 April 2008 (2008-04-24)3T63173.62[97]
15018"Apocalypse"Tom WellingAl Septien & Turi Meyer1 Mei 2008 (2008-05-01)3T63183.81[98]
15119"Quest"Kenneth BillerHolly Harold8 Mei 2008 (2008-05-08)3T63193.99[99]
15220"Arctic"Todd SlavkinDon Whitehead & Holly Henderson15 Mei 2008 (2008-05-15)3T63203.85[100]

Musim 8 (2008–09)[sunting | sunting sumber]

Rencana utama: Smallville (musim 8)
No. dalam
siri
No. dalam
musim
Judul Arahan Ditulis oleh Tarikh tayangan asal Kod
penerbitan
Penonton AS
(juta)
1531"Odyssey"Kevin G. FairDrama televisi oleh: Todd Slavkin & Darren Swimmer
Cerita oleh: Brian Peterson & Kelly Souders
18 September 2008 (2008-09-18)3T74514.34[101]
1542"Plastique"Rick RosenthalDon Whitehead & Holly Henderson25 September 2008 (2008-09-25)3T74524.18[102]
1553"Toxic"James ConwayAl Septien & Turi Meyer2 Oktober 2008 (2008-10-02)3T74544.11[103]
1564"Instinct"Mairzee AlmasCaroline Dries9 Oktober 2008 (2008-10-09)3T74534.05[104]
1575"Committed"Glen WinterBryan Q. Miller16 Oktober 2008 (2008-10-16)3T74554.18[105]
1586"Prey"Michael RohlKelly Souders & Brian Peterson23 Oktober 2008 (2008-10-23)3774564.15[106]
1597"Identity"Mairzee AlmasTodd Slavkin & Darren Swimmer30 Oktober 2008 (2008-10-30)3T74574.32[107]
1608"Bloodline"Michael RohlCaroline Dries6 November 2008 (2008-11-06)3T74594.45[108]
1619"Abyss"Kevin G. FairDon Whitehead & Holly Henderson13 November 2008 (2008-11-13)3T74583.55[109]
16210"Bride"Jeannot SzwarcAl Septien & Turi Meyer20 November 2008 (2008-11-20)3T74604.18[110]
16311"Legion"Glen WinterGeoff Johns15 Januari 2009 (2009-01-15)3T74614.29[111]
16412"Bulletproof"Morgan BeggsBryan Miller22 Januari 2009 (2009-01-22)3T74623.85[112]
16513"Power"Allison MackTodd Slavkin & Darren Swimmer29 Januari 2009 (2009-01-29)3T74634.21[113]
16614"Requiem"Michael RohlDon Whitehead & Holly Henderson5 Februari 2009 (2009-02-05)3T74643.93[114]
16715"Infamous"Glen WinterCaroline Dries12 Mac 2009 (2009-03-12)3T74653.56[115]
16816"Turbulence"Kevin G. FairAl Septien & Turi Meyer19 Mac 2009 (2009-03-19)3T74663.49[116]
16917"Hex"Mairzee AlmasBryan Miller26 Mac 2009 (2009-03-26)3T74673.79[117]
17018"Eternal"James MarshallBrian Peterson & Kelly Souders2 April 2009 (2009-04-02)3T74683.84[118]
17119"Stiletto"Kevin G. FairCaroline Dries23 April 2009 (2009-04-23)3T74693.10[119]
17220"Beast"Michael RohlGenevieve Sparling30 April 2009 (2009-04-30)3T74703.23[120]
17321"Injustice"Tom WellingAl Septien & Turi Meyer7 Mei 2009 (2009-05-07)3T74713.39[121]
17422"Doomsday"James MarshallBrian Peterson & Kelly Souders14 Mei 2009 (2009-05-14)3T74723.13[122]

Musim 9 (2009–10)[sunting | sunting sumber]

Rencana utama: Smallville (musim 9)
No. dalam
siri
No. dalam
musim
Judul Arahan Ditulis oleh Tarikh tayangan asal Kod
penerbitan
Penonton AS
(juta)
1751"Savior"Kevin G. FairKelly Souders & Brian Peterson25 September 2009 (2009-09-25)3X52512.58[123]
1762"Metallo"Mairzee AlmasDon Whitehead & Holly Henderson2 Oktober 2009 (2009-10-02)3X52522.24[124]
1773"Rabid"Michael RohlJordan Hawley9 Oktober 2009 (2009-10-09)3X52532.30[125]
1784"Echo"Wayne RoseBryan Miller16 Oktober 2009 (2009-10-16)3X52542.61[126]
1795"Roulette"Kevin G. FairGenevieve Sparling23 Oktober 2009 (2009-10-23)3X52562.52[127]
1806"Crossfire"Michael RohlDon Whitehead & Holly Henderson30 Oktober 2009 (2009-10-30)3X52572.57[128]
1817"Kandor"Jeannot SzwarcAl Septien & Turi Meyer6 November 2009 (2009-11-06)3X52582.63[129]
1828"Idol"Glen WinterAnne Cofell Saunders13 November 2009 (2009-11-13)3X52552.68[130]
1839"Pandora"Morgan BeggsDrew Landis & Julia Swift20 November 2009 (2009-11-20)3X52592.45[131]
18410"Disciple"Mairzee AlmasJordan Hawley29 Januari 2010 (2010-01-29)3X52602.52[132]
18511[a]"Absolute Justice"Glen Winter (Jam pertama)
Tom Welling (Jam ke-2)
Geoff Johns5 Februari 2010 (2010-02-05)3X5262
3X5263
2.77[134]
18612"Warrior"Allison MackBryan Miller12 Februari 2010 (2010-02-12)3X52612.48[135]
18713"Persuasion"Christopher PetryAnne Cofell Saunders19 Februari 2010 (2010-02-19)3X52642.42[136]
18814"Conspiracy"Turi MeyerAl Septien & Turi Meyer26 Februari 2010 (2010-02-26)3X52652.53[137]
18915"Escape"Kevin G. FairGenevieve Sparling2 April 2010 (2010-04-02)3X52662.13[138]
19016"Checkmate"Tim ScanlanJohn Chisholm9 April 2010 (2010-04-09)3X52672.13[139]
19117"Upgrade"Michael RohlDrew Landis & Julia Swift16 April 2010 (2010-04-16)3X52681.84[140]
19218"Charade"Brian PetersonDon Whitehead & Holly Henderson23 April 2010 (2010-04-23)3X52692.23[141]
19319"Sacrifice"Kevin G. FairDrama televisi oleh: Justin Hartley & Walter Wong & Bryan Miller
Cerita oleh: Justin Hartley & Walter Wong
30 April 2010 (2010-04-30)3X52701.89[142]
19420"Hostage"Glen WinterJordan Hawley & Anne Cofell Saunders7 Mei 2010 (2010-05-07)3X52711.92[143]
19521"Salvation"Greg BeemanAl Septien & Turi Meyer14 Mei 2010 (2010-05-14)3X52722.45[144]

Musim 10 (2010–11)[sunting | sunting sumber]

Rencana utama: Smallville (musim 10)
No. dalam
siri
No. dalam
musim
Judul Arahan Ditulis oleh Tarikh tayangan asal Kod
penerbitan
Penonton AS
(juta)
1961"Lazarus"Kevin G. FairDon Whitehead & Holly Henderson24 September 2010 (2010-09-24)3X60012.98[145]
1972"Shield"Glen WinterJordan Hawley1 Oktober 2010 (2010-10-01)3X60022.38[146]
1983"Supergirl"Mairzee AlmasAnne Cofell Saunders8 Oktober 2010 (2010-10-08)3X60032.30[147]
1994[b]"Homecoming"Jeannot SzwarcBrian Peterson & Kelly Souders15 Oktober 2010 (2010-10-15)3X60043.19[150]
2005"Isis"James MarshallGenevieve Sparling22 Oktober 2010 (2010-10-22)3X60052.60[151]
2016"Harvest"Turi MeyerAl Septien & Turi Meyer29 Oktober 2010 (2010-10-29)3X60072.96[152]
2027"Ambush"Christopher PetryDon Whitehead & Holly Henderson5 November 2010 (2010-11-05)3X60062.63[153]
2038"Abandoned"Kevin G. FairDrew Landis & Julia Swift12 November 2010 (2010-11-12)3X60082.90[154]
2049"Patriot"Tom WellingJohn Chisholm19 November 2010 (2010-11-19)3X60092.60[155]
20510"Luthor"Kelly SoudersBryan Q. Miller3 Disember 2010 (2010-12-03)3X60102.76[156]
20611"Icarus"Mairzee AlmasGenevieve Sparling10 Disember 2010 (2010-12-10)3X60112.55[157]
20712"Collateral"Morgan BeggsJordan Hawley4 Februari 2011 (2011-02-04)3X60122.37[158]
20813"Beacon"Mike RohlDon Whitehead & Holly Henderson11 Februari 2011 (2011-02-11)3X60132.32[159]
20914"Masquerade"Tim ScanlanBryan Q. Miller18 Februari 2011 (2011-02-18)3X60142.22[160]
21015"Fortune"Christopher PetryAnne Cofell Saunders25 Februari 2011 (2011-02-25)3X60152.56[161]
21116"Scion"Al SeptienAl Septien & Turi Meyer4 Mac 2011 (2011-03-04)3X60162.18[162]
21217"Kent"Jeannot SzwarcDrama televisi oleh: Brian Peterson & Kelly Souders
Cerita oleh: Genevieve Sparling
15 April 2011 (2011-04-15)3X60182.37[163]
21318"Booster"Tom WellingGeoff Johns22 April 2011 (2011-04-22)3X60172.35[164]
21419"Dominion"Justin HartleyJohn Chisholm29 April 2011 (2011-04-29)3X60211.99[165]
21520"Prophecy"Mike RohlBryan Q. Miller & Anne Cofell Saunders6 Mei 2011 (2011-05-06)3X60192.07[166]
216
217
21
22
"Finale"Kevin G. Fair
Greg Beeman
Al Septien & Turi Meyer
Brian Peterson & Kelly Souders
13 Mei 2011 (2011-05-13)3X6020
3X6022
3.02[167]

Catatan[sunting | sunting sumber]

  1. ^ Penulis menganggap "Absolute Justice" ialah dua episod yang diterbitkan secara berasingan. Namun, The CW menyiarkannya sebagai episod tunggal, dan kemudian mengemaskininya sebagai episod tunggal dalam DVD musim kesembilan. Sehingga itu, "Absolute Justice" ialah episod ke-185 sekaligus ke-186, namun hanya episod ke-185 yang disiarkan.[133]
  2. ^ Penulis menganggap "Absolute Justice" dari musim kesembilan ialah dua episod yang diterbitkan secara berasingan. Namun, The CW menyiarkannya sebagai episod tunggal, dan kemudian mengemaskininya sebagai episod tunggal dalam DVD musim kesembilan. Sehingga itu, "Absolute Justice" ialah episod ke-185 sekaligus ke-186, namun hanya episod ke-185 yang disiarkan. Sehingga "Homecoming" dianggap merupakan episod ke-200 yang diterbitkan, namun ke-199 yang disiarkan. CW menganggap "Homecoming" ialah episod ke-200.[148][149]

Rujukan[sunting | sunting sumber]

  1. ^ Jessica Seid (January 24, 2006). "'Gilmore Girls' meet 'Smackdown':CW Network to combine WB, UPN in CBS-Warner venture beginning in September". CNN Money. Dicapai August 19, 2007. 
  2. ^ Seth Gunderson (November 5, 2001). "Smallville, Kansas. The biggest little town you've ever seen". The Trades. Diarkibkan daripada asal pada October 11, 2007. Dicapai May 22, 2007. 
  3. ^ a b c d e f g h i j k l m n o p q r s t "Episode List: Smallville – Season 1". TV Tango. Dicapai May 17, 2014. 
  4. ^ a b c d e f g h i j k l m n o p q r s t u v w "Episode List: Smallville – Season 2". TV Tango. Dicapai May 17, 2014. 
  5. ^ a b c d e f g h i j k l m Smallville – Series – Episode List – TV Tango
  6. ^ "Weekly Program Rankings". ABC Medianet. February 24, 2004. Dicapai March 28, 2009. 
  7. ^ "Weekly Program Rankings". ABC Medianet. March 2, 2004. Dicapai March 28, 2009. 
  8. ^ "Weekly Program Rankings". ABC Medianet. March 9, 2004. Dicapai March 28, 2009. 
  9. ^ "Weekly Program Rankings". ABC Medianet. April 20, 2004. Dicapai March 28, 2009. 
  10. ^ "Weekly Program Rankings". ABC Medianet. April 27, 2004. Dicapai March 28, 2009. 
  11. ^ "Weekly Program Rankings". ABC Medianet. May 4, 2004. Dicapai March 28, 2009. 
  12. ^ "Weekly Program Rankings". ABC Medianet. May 11, 2004. Dicapai March 28, 2009. 
  13. ^ "Weekly Program Rankings". ABC Medianet. May 18, 2004. Dicapai March 28, 2009. 
  14. ^ "Weekly Program Rankings". ABC Medianet. May 25, 2004. Dicapai March 28, 2009. 
  15. ^ "Weekly Program Rankings". ABC Medianet. September 29, 2004. Dicapai March 28, 2009. 
  16. ^ "Weekly Program Rankings". ABC Medianet. October 5, 2004. Dicapai March 28, 2009. 
  17. ^ "Weekly Program Rankings". ABC Medianet. October 12, 2004. Dicapai March 28, 2009. 
  18. ^ "Weekly Program Rankings". ABC Medianet. October 19, 2004. Dicapai March 28, 2009. 
  19. ^ "Weekly Program Rankings". ABC Medianet. October 26, 2004. Dicapai March 28, 2009. 
  20. ^ "Weekly Program Rankings". ABC Medianet. November 2, 2004. Dicapai March 28, 2009. 
  21. ^ "Weekly Program Rankings Report". ABC Medianet. November 9, 2004. Dicapai March 28, 2009. 
  22. ^ "Weekly Program Rankings". ABC Medianet. November 16, 2004. Dicapai March 28, 2009. 
  23. ^ "Weekly Program Rankings". ABC Medianet. November 23, 2004. Dicapai March 28, 2009. 
  24. ^ "Weekly Program Rankings". ABC Medianet. December 7, 2004. Dicapai March 28, 2009. 
  25. ^ "Weekly Program Rankings". ABC Medianet. February 1, 2005. Dicapai March 28, 2009. 
  26. ^ "Weekly Program Rankings". ABC Medianet. February 8, 2005. Dicapai March 28, 2009. 
  27. ^ "Weekly Program Rankings". ABC Medianet. February 15, 2005. Dicapai March 28, 2009. 
  28. ^ "Weekly Program Rankings". ABC Medianet. February 23, 2005. Dicapai March 28, 2009. 
  29. ^ "Weekly Program Rankings". ABC Medianet. March 1, 2005. Dicapai March 28, 2009. 
  30. ^ "Weekly Program Rankings". ABC Medianet. March 8, 2005. Dicapai March 28, 2009. 
  31. ^ "Weekly Program Rankings". ABC Medianet. April 19, 2005. Dicapai March 28, 2009. 
  32. ^ "Weekly Program Rankings". ABC Medianet. April 26, 2005. Dicapai March 28, 2009. 
  33. ^ "Weekly Program Rankings". ABC Medianet. May 3, 2005. Dicapai March 28, 2009. 
  34. ^ "Weekly Program Rankings". ABC Medianet. May 10, 2005. Dicapai March 28, 2009. 
  35. ^ "Weekly Program Rankings". ABC Medianet. May 17, 2005. Dicapai March 28, 2009. 
  36. ^ "Weekly Program Rankings". ABC Medianet. May 24, 2005. Dicapai March 28, 2009. 
  37. ^ "Weekly Program Rankings". ABC Medianet. October 4, 2005. Dicapai March 28, 2009. 
  38. ^ "Weekly Program Rankings". ABC Medianet. October 11, 2005. Dicapai March 28, 2009. 
  39. ^ "Weekly Program Rankings". ABC Medianet. October 18, 2005. Dicapai March 28, 2009. 
  40. ^ "Weekly Program Rankings". ABC Medianet. October 25, 2005. Dicapai March 28, 2009. 
  41. ^ "Weekly Program Rankings". ABC Medianet. November 1, 2005. Dicapai March 28, 2009. 
  42. ^ "Weekly Program Rankings". ABC Medianet. November 8, 2005. Dicapai March 28, 2009. 
  43. ^ "Weekly Program Rankings". ABC Medianet. November 15, 2005. Dicapai March 28, 2009. 
  44. ^ "Weekly Program Rankings". ABC Medianet. November 22, 2005. Dicapai March 28, 2009. 
  45. ^ "Weekly Program Rankings". ABC Medianet. December 13, 2005. Dicapai March 28, 2009. 
  46. ^ "Weekly Program Rankings". ABC Medianet. January 18, 2006. Dicapai March 28, 2009. 
  47. ^ "Weekly Program Rankings". ABC Medianet. January 24, 2006. Dicapai March 28, 2009. 
  48. ^ "Weekly Program Rankings". ABC Medianet. January 31, 2006. Dicapai March 28, 2009. 
  49. ^ "Weekly Program Rankings". ABC Medianet. February 7, 2006. Dicapai March 28, 2009. 
  50. ^ "Weekly Program Rankings". ABC Medianet. February 14, 2006. Dicapai March 28, 2009. 
  51. ^ "Weekly Program Rankings". ABC Medianet. February 22, 2006. Dicapai March 28, 2009. 
  52. ^ "Weekly Program Rankings". ABC Medianet. April 4, 2006. Dicapai March 28, 2009. 
  53. ^ "Weekly Program Rankings". ABC Medianet. April 11, 2006. Dicapai March 28, 2009. 
  54. ^ "Weekly Program Rankings". ABC Medianet. April 18, 2006. Dicapai March 28, 2009. 
  55. ^ "Weekly Program Rankings". ABC Medianet. April 25, 2006. Dicapai March 28, 2009. 
  56. ^ "Weekly Program Rankings". ABC Medianet. May 2, 2006. Dicapai March 28, 2009. 
  57. ^ "Weekly Program Rankings". ABC Medianet. May 9, 2006. Dicapai March 28, 2009. 
  58. ^ "Weekly Program Rankings". ABC Medianet. May 16, 2006. Dicapai March 28, 2009. 
  59. ^ "Weekly Program Rankings". ABC Medianet. October 3, 2006. Dicapai March 28, 2009. 
  60. ^ "Weekly Program Rankings". ABC Medianet. October 10, 2006. Dicapai March 28, 2009. 
  61. ^ "Weekly Program Rankings". ABC Medianet. October 17, 2006. Dicapai March 28, 2009. 
  62. ^ "Weekly Program Rankings". ABC Medianet. October 24, 2006. Dicapai March 28, 2009. 
  63. ^ "Weekly Program Rankings". ABC Medianet. October 31, 2006. Dicapai March 28, 2009. 
  64. ^ "Weekly Program Rankings". ABC Medianet. November 7, 2006. Dicapai March 28, 2009. 
  65. ^ "Weekly Program Rankings". ABC Medianet. November 14, 2006. Dicapai March 28, 2009. 
  66. ^ "Weekly Program Rankings". ABC Medianet. November 21, 2006. Dicapai March 28, 2009. 
  67. ^ "Weekly Program Rankings". ABC Medianet. December 12, 2006. Dicapai March 28, 2009. 
  68. ^ "Weekly Program Rankings". ABC Medianet. January 17, 2007. Dicapai March 28, 2009. 
  69. ^ "Weekly Program Rankings". ABC Medianet. January 23, 2007. Dicapai March 28, 2009. 
  70. ^ "Weekly Program Rankings". ABC Medianet. January 30, 2007. Dicapai March 28, 2009. 
  71. ^ "Weekly Program Rankings". ABC Medianet. February 6, 2007. Dicapai March 28, 2009. 
  72. ^ "Weekly Program Rankings". ABC Medianet. February 13, 2007. Dicapai March 28, 2009. 
  73. ^ "Weekly Program Rankings". ABC Medianet. February 21, 2007. Dicapai March 28, 2009. 
  74. ^ "Weekly Program Rankings". ABC Medianet. March 20, 2007. Dicapai March 28, 2009. 
  75. ^ "Weekly Program Rankings". ABC Medianet. March 27, 2007. Dicapai March 28, 2009. 
  76. ^ "Weekly Program Rankings". ABC Medianet. April 24, 2007. Dicapai March 28, 2009. 
  77. ^ "Weekly Program Rankings". ABC Medianet. May 1, 2007. Dicapai March 28, 2009. 
  78. ^ "Weekly Program Rankings". ABC Medianet. May 8, 2007. Dicapai March 28, 2009. 
  79. ^ "Weekly Program Rankings". ABC Medianet. May 15, 2007. Dicapai March 28, 2009. 
  80. ^ "Weekly Program Rankings". ABC Medianet. May 22, 2007. Diarkibkan daripada asal pada May 28, 2010. Dicapai March 28, 2009. 
  81. ^ "Weekly Program Rankings". ABC Medianet. October 2, 2007. Dicapai March 28, 2009. 
  82. ^ "Weekly Program Rankings". ABC Medianet. October 9, 2007. Dicapai March 28, 2009. 
  83. ^ "Weekly Program Rankings". ABC Medianet. October 16, 2007. Dicapai March 28, 2009. 
  84. ^ "Weekly Program Rankings". ABC Medianet. October 23, 2007. Dicapai March 28, 2009. 
  85. ^ "Weekly Program Rankings". ABC Medianet. October 30, 2007. Dicapai March 28, 2009. 
  86. ^ Calabria, Rosario T. (November 2, 2007). "Broadcast TV Ratings for November 1, 2007". Entertainment Now. Dicapai April 19, 2008. 
  87. ^ "Weekly Program Rankings". ABC Medianet. November 13, 2007. Dicapai March 28, 2009. 
  88. ^ "Weekly Program Rankings". ABC Medianet. November 20, 2007. Dicapai March 28, 2009. 
  89. ^ Gorman, Bill (December 19, 2007). "Top CW Primetime Shows, December 10–16". TV by the Numbers. Dicapai November 22, 2008. 
  90. ^ "Weekly Program Rankings". ABC Medianet. February 5, 2008. Dicapai March 28, 2009. 
  91. ^ "Weekly Program Rankings". ABC Medianet. February 12, 2008. Dicapai March 28, 2009. 
  92. ^ "Weekly Program Rankings". ABC Medianet. February 20, 2008. Dicapai March 28, 2009. 
  93. ^ "Weekly Program Rankings". ABC Medianet. March 18, 2008. Dicapai March 28, 2009. 
  94. ^ "Weekly Program Rankings". ABC Medianet. March 25, 2008. Dicapai March 28, 2009. 
  95. ^ "Weekly Program Rankings". ABC Medianet. April 1, 2008. Dicapai March 28, 2009. 
  96. ^ "Weekly Program Rankings". ABC Medianet. April 22, 2008. Dicapai March 28, 2009. 
  97. ^ "Weekly Program Rankings". ABC Medianet. April 29, 2008. Dicapai March 28, 2009. 
  98. ^ "Weekly Program Rankings". ABC Medianet. May 1, 2008. Dicapai March 28, 2009. 
  99. ^ "Weekly Program Rankings". ABC Medianet. May 13, 2008. Dicapai March 28, 2009. 
  100. ^ "Weekly Program Rankings". ABC Medianet. May 20, 2008. Dicapai March 28, 2009. 
  101. ^ Gorman, Bill (September 23, 2008). "Top CW Primetime Shows, September 15–21". TV by the Numbers. Dicapai November 22, 2008. 
  102. ^ Gorman, Bill (September 30, 2008). "Top CW Primetime Shows, September 22–28". TV by the Numbers. Dicapai November 22, 2008. 
  103. ^ Gorman, Bill (October 14, 2008). "Top CW Primetime Shows, October 6–12". TV by the Numbers. Dicapai November 22, 2008. 
  104. ^ Gorman, Bill (October 7, 2008). "Top CW Primetime Shows, September 29 – October 5". Dicapai November 22, 2008. 
  105. ^ Gorman, Bill (October 21, 2008). "Top CW Primetime Shows, October 13–19". TV by the Numbers. Dicapai November 22, 2008. 
  106. ^ Seidman, Robert (October 29, 2008). "Top CW Primetime Shows, October 20–26". TV by the Numbers. Dicapai November 22, 2008. 
  107. ^ Seidman, Robert (November 4, 2008). "Top CW Primetime Shows, October 27 – November 2". TV by the Numbers. Dicapai November 22, 2008. 
  108. ^ Seidman, Robert (November 11, 2008). "Top CW Primetime Shows, November 3–9". TV by the Numbers. Dicapai November 22, 2008. 
  109. ^ Seidman, Robert (November 18, 2008). "Top CW Primetime Shows, November 10–16, 2008". TV by the Numbers. Dicapai November 22, 2008. 
  110. ^ Seidman, Robert (November 25, 2008). "Top CW Primetime Shows, November 17–23". TV by the Numbers. Dicapai November 25, 2008. 
  111. ^ Seidman, Robert (January 21, 2009). "Top CW Primetime Shows, January 12–18". TV by the Numbers. Dicapai January 21, 2009. 
  112. ^ Seidman, Robert (January 27, 2009). "Top CW Primetime Shows, January 19–25, 2009". TV by the Number. Dicapai February 22, 2009. 
  113. ^ Seidman, Robert (February 3, 2009). "Top CW Primetime Shows, January 26 – February 1, 2009". TV by the Numbers. Dicapai February 5, 2009. 
  114. ^ Seidman, Robert (February 10, 2009). "Top CW Primetime Shows, February 2–8, 2009". TV by the Numbers. Dicapai February 11, 2009. 
  115. ^ Seidman, Robert (March 17, 2009). "Top CW Primetime Shows, March 9–15, 2009". TV by the Numbers. Dicapai March 20, 2009. 
  116. ^ Seidman, Robert (March 24, 2009). "Top CW Primetime Shows, March 16–22, 2009". TV by the Numbers. Dicapai March 25, 2009. 
  117. ^ Seidman, Robert (March 31, 2009). "Top CW Primetime Shows, March 23–29, 2009". TV by the Numbers. Dicapai April 1, 2009. 
  118. ^ Seidman, Robert (April 7, 2009). "Top CW Primetime Shows, March 30 – April 5, 2009". TV by the Numbers. Dicapai April 7, 2009. 
  119. ^ Seidman, Robert (May 2, 2009). "Top CW Primetime Shows, April 20–26, 2009". TV by the Numbers. Dicapai May 2, 2009. 
  120. ^ Seidman, Robert (May 6, 2009). "Top CW Primetime Shows, April 27 – May 3, 2009". TV by the Numbers. Dicapai May 12, 2009. 
  121. ^ Seidman, Robert (May 12, 2009). "Top CW Primetime Shows, May 4–10, 2009". TV by the Numbers. Dicapai May 12, 2009. 
  122. ^ Seidman, Robert (May 19, 2009). "Top CW Primetime Shows, May 11–17, 2009". TV by the Numbers. Dicapai May 20, 2009. 
  123. ^ Gorman, Bill (October 12, 2009). "Dollhouse Premiere 18–49 Rating Increases To A 1.5 Via DVR; Hopeful or Futile?". TV by the Numbers. Dicapai October 20, 2009. 
  124. ^ Berman, Marc (October 20, 2009). "ABC Wins Monday Overnights; Fox the Network to Beat Among Adults 18–49". MediaWeek.com. Dicapai October 21, 2009. 
  125. ^ Seidman, Robert (October 10, 2009). "TV Ratings: Dollhouse rises; Ghost Whisperer leads CBS to win". TV by the Numbers. Dicapai October 10, 2009. 
  126. ^ Seidman, Robert (November 2, 2009). "Smallville sees HUGE DVR increases DVR viewer increases: House most DVR'd; Fringe biggest % increase". TV by the Numbers. Dicapai November 2, 2009. 
  127. ^ Gorman, Bill (October 24, 2009). "Updated TV Ratings: Dollhouse hits low note; Medium wins with adults 18–49". TV by the Numbers. Dicapai October 24, 2009. 
  128. ^ Seidman, Robert (November 16, 2009). "crazed #Smallville fans, 10/30 episode boosted with DVR from L+SD 2.565M to L+7 3.24 million. 18–49 went from a 1.1 rating to a 1.5 rating". Twitter. Dicapai November 18, 2009. 
  129. ^ Seidman, Robert (November 9, 2009). "UPDATED Friday Broadcast Finals: Smallville hits several season highs". TV by the Numbers. Dicapai November 9, 2009. 
  130. ^ "Live Plus 7 Day Ratings Update". MediaWeek. November 17, 2009. Diarkibkan daripada asal pada November 20, 2009. Dicapai November 18, 2009. 
  131. ^ Seidman, Robert (November 21, 2009). "TV Ratings:Ghost Whisperer leads night with adults 18–49; Shrek the Third helps ABC". TV by the Numbers. Dicapai November 21, 2009. 
  132. ^ Seidman, Robert (January 30, 2010). "TV Ratings: CBS Wins Slow Friday; Smallville returns; Dollhouse finishes". TV by the Numbers. Dicapai February 6, 2011. 
  133. ^ "Smallville writers respond". Twitter. February 19, 2010. Dicapai March 9, 2010. 
  134. ^ Seidman, Robert (February 6, 2010). "TV Ratings: CBS Wins Friday Again; Two New Hours of Smallville Are Better than One for CW". TV by the Numbers. Dicapai March 28, 2010. 
  135. ^ Seidman, Robert (February 13, 2010). "TV Ratings: Vancouver Opening Ceremonies Average 34.5 32.6 Million Viewers". TV by the Numbers. Dicapai March 28, 2010. 
  136. ^ Seidman, Robert (February 20, 2010). "TV Ratings: Olympics on NBC Crushes Competition; Smallville Steady". TV by the Numbers. Dicapai March 28, 2010. 
  137. ^ Seidman, Robert (February 27, 2010). "TV Ratings: Olympics Easily Skates To Victory; Smallville Up Slightly". TV by the Numbers. Dicapai March 28, 2010. 
  138. ^ "Friday Broadcast Finals: "Smallville" Rises". Tvbythenumbers.com.com. April 5, 2010. Dicapai April 5, 2010. 
  139. ^ Seidman, Robert (April 10, 2010). "TV Ratings: As Expected "Ghost Whisperer" and "Medium" Rebound as "Miami Medical" Falls, But..." TV by the Numbers. Dicapai February 7, 2011. 
  140. ^ Seidman, Robert (April 17, 2010). "TV Ratings: The Food Revolution Continues, Weakly; Miami Medical, Smallville Fall". TV by the Numbers. Dicapai February 7, 2011. 
  141. ^ Gorman, Bill (April 24, 2010). "TV Ratings: Dateline Leads NBC Win, As Food Revolution Ends Without A Bang". TV by the Numbers. Dicapai February 7, 2011. 
  142. ^ ""Smallville" & "Miami Medical" Adjusted Down in Friday Finals – TV Ratings, Nielsen Ratings, Television Show Ratings". TVbytheNumbers.com. May 3, 2010. Dicapai May 19, 2010. 
  143. ^ Seidman, Robert (May 8, 2010). "TV Ratings: Friday Night Lights Returns Quietly; "Primetime: What Would You Do?" Leads ABC". TV by the Numbers. Dicapai February 7, 2011. 
  144. ^ Seidman, Robert (May 15, 2010). "TV Ratings: Primetime: What Would You Do?, 20/20" Pace ABC To Win; "Smallville" Up". TV by the Numbers. Dicapai February 7, 2011. 
  145. ^ Gorman, Bill (September 27, 2010). "Friday Finals: Supernatural Up; Dateline Down". TV by the Numbers. Dicapai September 27, 2010. 
  146. ^ Seidman, Robert (October 5, 2010). "Friday Finals: No Changes With 18–49 Ratings for Originals". TV by the Numbers. Dicapai October 5, 2010. 
  147. ^ Gorman, Bill (October 11, 2010). "Friday Final Ratings: Dateline, Outlaw, Good Guys, Supernatural Adjusted Down". TV by the Numbers. Dicapai October 12, 2010. 
  148. ^ "Smallville writers respond". Twitter. February 19, 2010. Dicapai March 9, 2010. 
  149. ^ David Lambert (June 17, 2010). "Final (Earlier!) Release Date and Extras for The Complete 9th Season on DVD and Blu-ray". TVShowsOnDVD.com. Diarkibkan daripada asal pada June 19, 2010. Dicapai June 17, 2010. 
  150. ^ Seidman, Robert (October 18, 2010). "Friday Final Ratings: Medium Adjusted Down, Smallville, Supernatural Hold Preliminary Ratings". TV by the Numbers. Dicapai October 19, 2010. 
  151. ^ Gorman, Bill (October 25, 2010). "Friday Final Ratings: Smallville Adjusted Up; CSI:NY, Dateline Adjusted Down". TV by the Numbers. Dicapai October 25, 2010. 
  152. ^ Seidman, Robert (November 1, 2010). "Friday Final Ratings: The Great Pumpkin Rises". TV by the Numbers. Dicapai November 2, 2010. 
  153. ^ Gorman, Bill (November 8, 2010). "Friday Final Ratings: What Would You Do?, 20/20, Blue Bloods Adjusted Up". TV by the Numbers. Dicapai November 8, 2010. 
  154. ^ Seidman, Robert (November 15, 2010). "Friday Final Ratings: 20/20 Down a Tenth; Smallville Still Rocked w/Teri Hatcher". TV by the Numbers. Dicapai November 15, 2010. 
  155. ^ Seidman, Robert (November 22, 2010). "Friday Final Ratings: CSI: NY Adjusted Down; School Pride Adjusted Up". TV by the Numbers. Dicapai November 23, 2010. 
  156. ^ Gorman, Bill (December 6, 2010). "Friday Final Ratings: No Adjustments For Smallville, Supernatural, Or Any Other Shows". TV by the Numbers. Dicapai December 6, 2010. 
  157. ^ Seidman, Robert (December 13, 2010). "Friday Final Ratings: 'Supernanny,' 'Primetime,' Adjusted Up; '20/20' Adjusted Down; No Changes for Smallville, Supernatural, & Others". TV by the Numbers. Dicapai December 14, 2010. 
  158. ^ Seidman, Gorman (February 7, 2011). "Friday Finals: No Adjustments for 'Fringe,' 'Supernatural,' 'Smallville' or Any Other Show's 18–49 Ratings". TV by the Numbers. Dicapai February 8, 2011. 
  159. ^ Bill Gorman (February 12, 2011). "Updated TV Ratings Friday: 'Fringe' Falls Further, 'Smallville,' 'Supernatural,' Down; 'The Defenders,' 'CSI:NY' Hit Lows". TV By The Numbers. Dicapai February 12, 2011. 
  160. ^ Seidman, Robert (February 22, 2011). "Friday Final Ratings: 'Blue Bloods' Falls; No Adjustments for 'Fringe,' 'Smallville' and 'Supernatural". TV by the Numbers. Dicapai February 22, 2011. 
  161. ^ Gorman, Bill (February 28, 2011). "Friday Final Ratings: 'CSI:NY' Adjusted Up; No Adjustments For 'Fringe,' 'Supernatural,' 'Smallville'". TV by the Numbers. Dicapai February 28, 2011. 
  162. ^ Seidman, Robert (March 7, 2011). "Friday Final Ratings: 'Smallville' Adjusted Down, 20/20 Adjusted Up". TV by the Numbers. Dicapai March 8, 2011. 
  163. ^ Seidman, Robert (April 11, 2011). "Friday Final Ratings: 'Fringe,' 'Chaos' and 'Kitchen Nightmares' Adjusted Up". TV by the Numbers. Dicapai April 19, 2011. 
  164. ^ Seidman, Robert (April 25, 2011). "Friday Final Ratings: 'Smallville' Adjusted Up; 'Fringe' Stays at Series Low; 'Friday Night Lights' Adjusted Down". TV by the Numbers. Dicapai April 25, 2011. 
  165. ^ Gorman, Bill (May 2, 2011). "Friday Final Ratings: 'Friday Night Lights,' Two Wedding Shows Adjusted Up; No Adjustments For 'Fringe,' 'Smallville,' 'Supernatural'". TV by the Numbers. Dicapai May 2, 2011. 
  166. ^ Gorman, Bill (May 9, 2011). "Friday Final Ratings: 'Supernatural,' 'CSI:NY' Adjusted Up, No Adjustments To 'Fringe'". TV by the Numbers. Dicapai May 9, 2011. 
  167. ^ Seidman, Robert (May 16, 2011). "Friday Final Ratings: 'CSI:NY,' 'Blue Bloods,' 'Friday Night Lights,' and 'Kitchen Nightmares Adjusted Up, No Adjustments To 'Smallville'". TV by the Numbers. Dicapai May 16, 2011. 

Pautan luar[sunting | sunting sumber]